Simultaneous Nadir Overpasses (SNOs) Predictions

Prediction of SNOs near equator between NOAA-19 and NPP Satellite Orbit:

Table of predicted SNOs near equator for the next 14.0 days since TLE Epoch: 4/12/2013
Index Date (NOAA-19) Time (NOAA-19) NOAA-19 Lat,Lon Date (NPP) Time (NPP) NPP Lat,Lon Distance(km) Time Diff (sec)
1 04/14/2013 06:09:44 -29.98, -73.33 04/14/2013 06:00:55 -29.76, -74.30 96.41 529
2 04/14/2013 07:00:46 29.94, 93.92 04/14/2013 06:51:44 29.78, 92.99 91.06 542
3 04/14/2013 07:51:49 -30.00, -98.86 04/14/2013 07:42:26 -29.82, -99.69 82.82 563
4 04/14/2013 08:42:51 29.96, 68.39 04/14/2013 08:33:14 29.79, 67.62 77.45 577
5 04/14/2013 09:33:53 -29.96,-124.36 04/14/2013 09:23:56 -29.83,-125.07 69.33 597
6 04/14/2013 10:24:56 29.98, 42.87 04/14/2013 10:14:56 30.49, 42.05 97.10 600
